| time (UTC) | temp C | wind direction | speed KPH | gust KPH | rain 1hr cm | rain 24hr cm | rain mn cm | humidity % | barometer mb |
| 20260507052811 | 20 | 0.0 | 3.2 | 0.00 | 0.00 | 0.00 | 34 | 1017.5 | |
| 20260507051911 | 19 | 0.0 | 3.2 | 0.00 | 0.00 | 0.00 | 36 | 1017.5 | |
| 20260507050111 | 18 | 135 | 3.2 | 6.4 | 0.00 | 0.00 | 0.00 | 39 | 1017.4 |
| 20260507045209 | 17 | 0.0 | 6.4 | 0.00 | 0.00 | 0.00 | 42 | 1017.2 | |
| 20260507044329 | 17 | 1.6 | 3.2 | 0.00 | 0.00 | 0.00 | 43 | 1017.3 | |
| 20260507043407 | 16 | 0.0 | 3.2 | 0.00 | 0.00 | 0.00 | 47 | 1017.3 | |
| 20260507042508 | 15 | 119 | 1.6 | 4.8 | 0.00 | 0.00 | 0.00 | 52 | 1017.3 |
| 20260507041606 | 13 | 0.0 | 1.6 | 0.00 | 0.00 | 0.00 | 57 | 1017.0 | |
| 20260507040707 | 12 | 0.0 | 3.2 | 0.00 | 0.00 | 0.00 | 60 | 1016.9 | |
| 20260507035825 | 11 | 135 | 0.0 | 3.2 | 0.00 | 0.00 | 0.00 | 61 | 1016.9 |
| 20260507034904 | 11 | 0.0 | 1.6 | 0.00 | 0.00 | 0.00 | 63 | 1016.9 | |
| 20260507033105 | 11 | 0.0 | 3.2 | 0.00 | 0.00 | 0.00 | 63 | 1016.8 | |
| 20260507032202 | 10 | 0.0 | 1.6 | 0.00 | 0.00 | 0.00 | 63 | 1016.6 | |
| 20260507031303 | 10 | 0.0 | 3.2 | 0.00 | 0.00 | 0.00 | 63 | 1016.6 | |
| 20260507030423 | 10 | 0.0 | 3.2 | 0.00 | 0.00 | 0.00 | 63 | 1016.5 | |
| 20260507025502 | 10 | 0.0 | 1.6 | 0.00 | 0.00 | 0.00 | 62 | 1016.5 | |
| 20260507024600 | 11 | 0.0 | 1.6 | 0.00 | 0.00 | 0.00 | 61 | 1016.5 | |
| 20260507023659 | 11 | 0.0 | 1.6 | 0.00 | 0.00 | 0.00 | 61 | 1016.4 | |
| 20260507022758 | 11 | 0.0 | 3.2 | 0.00 | 0.00 | 0.00 | 60 | 1016.5 | |
| 20260507021858 | 11 | 0.0 | 1.6 | 0.00 | 0.00 | 0.00 | 59 | 1016.4 | |
| 20260507020057 | 11 | 0.0 | 0.0 | 0.00 | 0.00 | 0.00 | 59 | 1016.4 | |
| 20260507015156 | 11 | 0.0 | 1.6 | 0.00 | 0.00 | 0.00 | 58 | 1016.5 | |
| 20260507014255 | 11 | 0.0 | 1.6 | 0.00 | 0.00 | 0.00 | 58 | 1016.5 | |
| 20260507013355 | 11 | 0.0 | 1.6 | 0.00 | 0.00 | 0.00 | 57 | 1016.5 | |
| 20260507012454 | 12 | 0.0 | 3.2 | 0.00 | 0.00 | 0.00 | 56 | 1016.6 | |
| 20260507011553 | 12 | 0.0 | 3.2 | 0.00 | 0.00 | 0.00 | 56 | 1016.6 | |
| 20260507010653 | 12 | 0.0 | 3.2 | 0.00 | 0.00 | 0.00 | 56 | 1016.6 | |
| 20260507005752 | 12 | 0.0 | 1.6 | 0.00 | 0.00 | 0.00 | 55 | 1016.5 | |
| 20260507004854 | 12 | 113 | 0.0 | 3.2 | 0.00 | 0.00 | 0.00 | 56 | 1016.5 |
| 20260507003051 | 12 | 158 | 1.6 | 3.2 | 0.00 | 0.00 | 0.00 | 55 | 1016.4 |
| 20260507002150 | 12 | 0.0 | 1.6 | 0.00 | 0.00 | 0.00 | 55 | 1016.3 | |
| 20260507001249 | 12 | 0.0 | 3.2 | 0.00 | 0.00 | 0.00 | 54 | 1016.3 | |
| 20260507000350 | 12 | 0.0 | 1.6 | 0.00 | 0.00 | 0.00 | 53 | 1016.3 | |
| 20260506235448 | 12 | 0.0 | 1.6 | 0.00 | 0.00 | 0.00 | 52 | 1016.3 | |
| 20260506234547 | 12 | 0.0 | 3.2 | 0.00 | 0.00 | 0.00 | 51 | 1016.2 | |
| 20260506233646 | 12 | 0.0 | 1.6 | 0.00 | 0.00 | 0.00 | 51 | 1016.5 | |
| 20260506232746 | 13 | 0.0 | 1.6 | 0.00 | 0.00 | 0.00 | 51 | 1016.3 | |
| 20260506231845 | 13 | 0.0 | 3.2 | 0.00 | 0.00 | 0.00 | 49 | 1016.5 | |
| 20260506230044 | 13 | 0.0 | 1.6 | 0.00 | 0.00 | 0.00 | 49 | 1016.5 | |
| 20260506225144 | 13 | 0.0 | 3.2 | 0.00 | 0.00 | 0.00 | 47 | 1016.5 | |
| 20260506224323 | 13 | 0.0 | 1.6 | 0.00 | 0.00 | 0.00 | 46 | 1016.6 | |
| 20260506223342 | 13 | 0.0 | 1.6 | 0.00 | 0.00 | 0.00 | 45 | 1016.5 | |
| 20260506222442 | 14 | 0.0 | 1.6 | 0.00 | 0.00 | 0.00 | 45 | 1016.5 | |
| 20260506221603 | 14 | 0.0 | 1.6 | 0.00 | 0.00 | 0.00 | 44 | 1016.5 | |
| 20260506220640 | 14 | 0.0 | 0.0 | 0.00 | 0.00 | 0.00 | 44 | 1016.6 | |
| 20260506215739 | 15 | 0.0 | 1.6 | 0.00 | 0.00 | 0.00 | 43 | 1016.6 | |
| 20260506214919 | 15 | 0.0 | 3.2 | 0.00 | 0.00 | 0.00 | 41 | 1016.5 | |
| 20260506213038 | 15 | 0.0 | 3.2 | 0.00 | 0.00 | 0.00 | 40 | 1016.5 | |
| 20260506212137 | 15 | 0.0 | 1.6 | 0.00 | 0.00 | 0.00 | 40 | 1016.4 | |
| 20260506211258 | 15 | 0.0 | 1.6 | 0.00 | 0.00 | 0.00 | 39 | 1016.3 | |
| 20260506210336 | 15 | 0.0 | 3.2 | 0.00 | 0.00 | 0.00 | 39 | 1016.3 | |
| 20260506205457 | 16 | 0.0 | 3.2 | 0.00 | 0.00 | 0.00 | 39 | 1016.3 | |
| 20260506204534 | 16 | 0.0 | 3.2 | 0.00 | 0.00 | 0.00 | 39 | 1016.2 | |
| 20260506203634 | 16 | 0.0 | 3.2 | 0.00 | 0.00 | 0.00 | 39 | 1016.3 | |
| 20260506202733 | 16 | 1.6 | 3.2 | 0.00 | 0.00 | 0.00 | 38 | 1016.4 | |
| 20260506201832 | 16 | 135 | 0.0 | 3.2 | 0.00 | 0.00 | 0.00 | 37 | 1016.3 |
| 20260506200031 | 17 | 0.0 | 3.2 | 0.00 | 0.00 | 0.00 | 36 | 1016.2 | |
| 20260506195132 | 17 | 0.0 | 3.2 | 0.00 | 0.00 | 0.00 | 35 | 1016.1 | |
| 20260506194230 | 17 | 135 | 1.6 | 3.2 | 0.00 | 0.00 | 0.00 | 34 | 1016.2 |
| 20260506193329 | 17 | 135 | 1.6 | 4.8 | 0.00 | 0.00 | 0.00 | 34 | 1016.2 |
| 20260506192429 | 17 | 135 | 1.6 | 3.2 | 0.00 | 0.00 | 0.00 | 33 | 1016.0 |
| 20260506191528 | 17 | 158 | 1.6 | 3.2 | 0.00 | 0.00 | 0.00 | 32 | 1016.0 |
| 20260506190627 | 18 | 0.0 | 3.2 | 0.00 | 0.00 | 0.00 | 31 | 1015.9 | |
| 20260506185746 | 18 | 135 | 3.2 | 11.3 | 0.00 | 0.00 | 0.00 | 31 | 1015.9 |
| 20260506184826 | 18 | 113 | 1.6 | 6.4 | 0.00 | 0.00 | 0.00 | 30 | 1015.6 |
| 20260506183025 | 19 | 135 | 3.2 | 6.4 | 0.00 | 0.00 | 0.00 | 30 | 1015.4 |
| 20260506182146 | 20 | 135 | 1.6 | 3.2 | 0.00 | 0.00 | 0.00 | 28 | 1015.3 |
| 20260506181224 | 20 | 135 | 3.2 | 6.4 | 0.00 | 0.00 | 0.00 | 28 | 1015.3 |
| 20260506180323 | 20 | 135 | 3.2 | 6.4 | 0.00 | 0.00 | 0.00 | 27 | 1015.1 |
| 20260506175422 | 20 | 158 | 3.2 | 6.4 | 0.00 | 0.00 | 0.00 | 25 | 1014.9 |
| 20260506174521 | 21 | 158 | 1.6 | 4.8 | 0.00 | 0.00 | 0.00 | 24 | 1014.8 |
| 20260506173620 | 21 | 135 | 3.2 | 4.8 | 0.00 | 0.00 | 0.00 | 22 | 1014.7 |
| 20260506172742 | 21 | 135 | 1.6 | 6.4 | 0.00 | 0.00 | 0.00 | 21 | 1014.4 |
| 20260506171814 | 22 | 135 | 1.6 | 3.2 | 0.00 | 0.00 | 0.00 | 19 | 1014.4 |
| 20260506170914 | 22 | 113 | 1.6 | 3.2 | 0.00 | 0.00 | 0.00 | 18 | 1014.5 |
| 20260506165133 | 22 | 3.2 | 3.2 | 0.00 | 0.00 | 0.00 | 17 | 1014.4 | |
| 20260506164212 | 23 | 3.2 | 6.4 | 0.00 | 0.00 | 0.00 | 16 | 1014.2 | |
| 20260506163311 | 23 | 158 | 1.6 | 4.8 | 0.00 | 0.00 | 0.00 | 15 | 1014.2 |
| 20260506162411 | 23 | 0.0 | 3.2 | 0.00 | 0.00 | 0.00 | 14 | 1014.1 | |
| 20260506161512 | 23 | 135 | 1.6 | 4.8 | 0.00 | 0.00 | 0.00 | 13 | 1014.1 |
| 20260506160610 | 24 | 158 | 3.2 | 6.4 | 0.00 | 0.00 | 0.00 | 12 | 1014.0 |
| 20260506155709 | 24 | 113 | 3.2 | 6.4 | 0.00 | 0.00 | 0.00 | 11 | 1013.9 |
| 20260506154828 | 25 | 135 | 0.0 | 8.0 | 0.00 | 0.00 | 0.00 | 10 | 1014.0 |
| 20260506153904 | 25 | 113 | 1.6 | 4.8 | 0.00 | 0.00 | 0.00 | 1013.9 | |
| 20260506152101 | 25 | 0.0 | 3.2 | 0.00 | 0.00 | 0.00 | 1013.9 | ||
| 20260506151201 | 26 | 113 | 1.6 | 3.2 | 0.00 | 0.00 | 0.00 | 1013.9 | |
| 20260506150304 | 26 | 0.0 | 3.2 | 0.00 | 0.00 | 0.00 | 1013.9 | ||
| 20260506145359 | 26 | 113 | 1.6 | 3.2 | 0.00 | 0.00 | 0.00 | 1013.9 | |
| 20260506144519 | 26 | 135 | 3.2 | 6.4 | 0.00 | 0.00 | 0.00 | 1013.9 | |
| 20260506143600 | 26 | 0.0 | 3.2 | 0.00 | 0.00 | 0.00 | 1013.9 | ||
| 20260506142657 | 27 | 135 | 1.6 | 4.8 | 0.00 | 0.00 | 0.00 | 1013.9 | |
| 20260506141758 | 27 | 158 | 3.2 | 8.0 | 0.00 | 0.00 | 0.00 | 1013.9 | |
| 20260506140858 | 29 | 118 | 3.2 | 9.7 | 0.00 | 0.00 | 0.00 | 1013.9 | |
| 20260506135050 | 30 | 158 | 1.6 | 6.4 | 0.00 | 0.00 | 0.00 | 1013.8 | |
| 20260506134149 | 30 | 158 | 3.2 | 8.0 | 0.00 | 0.00 | 0.00 | 1013.9 | |
| 20260506133250 | 30 | 158 | 1.6 | 3.2 | 0.00 | 0.00 | 0.00 | 1013.9 | |
| 20260506132348 | 30 | 158 | 1.6 | 4.8 | 0.00 | 0.00 | 0.00 | 1013.9 | |
| 20260506131447 | 30 | 135 | 1.6 | 3.2 | 0.00 | 0.00 | 0.00 | 1014.0 | |
| 20260506130548 | 30 | 135 | 3.2 | 6.4 | 0.00 | 0.00 | 0.00 | 1014.2 | |
| 20260506125638 | 30 | 135 | 4.8 | 11.3 | 0.00 | 0.00 | 0.00 | 1014.1 | |
| 20260506124738 | 30 | 158 | 1.6 | 6.4 | 0.00 | 0.00 | 0.00 | 1014.1 | |
| 20260506123919 | 30 | 129 | 3.2 | 6.4 | 0.00 | 0.00 | 0.00 | 1014.4 | |
| 20260506122036 | 30 | 0.0 | 1.6 | 0.00 | 0.00 | 0.00 | 1014.3 | ||
| 20260506121135 | 30 | 0.0 | 3.2 | 0.00 | 0.00 | 0.00 | 1014.6 | ||
| 20260506120255 | 30 | 158 | 1.6 | 6.4 | 0.00 | 0.00 | 0.00 | 1014.5 | |
| 20260506115334 | 30 | 135 | 1.6 | 3.2 | 0.00 | 0.00 | 0.00 | 1014.6 | |
| 20260506114435 | 31 | 135 | 1.6 | 3.2 | 0.00 | 0.00 | 0.00 | 1014.7 | |
| 20260506113532 | 31 | 0.0 | 3.2 | 0.00 | 0.00 | 0.00 | 1014.7 | ||
| 20260506112632 | 31 | 135 | 3.2 | 4.8 | 0.00 | 0.00 | 0.00 | 1014.6 | |
| 20260506111726 | 31 | 135 | 1.6 | 3.2 | 0.00 | 0.00 | 0.00 | 1014.7 | |
| 20260506110826 | 31 | 142 | 3.2 | 6.4 | 0.00 | 0.00 | 0.00 | 1014.9 | |
| 20260506105026 | 31 | 113 | 3.2 | 6.4 | 0.00 | 0.00 | 0.00 | 1015.0 | |
| 20260506104124 | 31 | 135 | 3.2 | 6.4 | 0.00 | 0.00 | 0.00 | 1015.0 | |
| 20260506103225 | 30 | 135 | 1.6 | 3.2 | 0.00 | 0.00 | 0.00 | 1015.0 | |
| 20260506102323 | 30 | 135 | 1.6 | 3.2 | 0.00 | 0.00 | 0.00 | 1015.1 | |
| 20260506101422 | 30 | 135 | 1.6 | 3.2 | 0.00 | 0.00 | 0.00 | 1015.0 | |
| 20260506100521 | 30 | 135 | 1.6 | 3.2 | 0.00 | 0.00 | 0.00 | 1014.9 | |
| 20260506095620 | 30 | 135 | 1.6 | 4.8 | 0.00 | 0.00 | 0.00 | 1015.0 | |
| 20260506094720 | 30 | 135 | 3.2 | 6.4 | 0.00 | 0.00 | 0.00 | 1015.1 | |
| 20260506093814 | 30 | 135 | 3.2 | 8.0 | 0.00 | 0.00 | 0.00 | 1015.3 | |
| 20260506092913 | 30 | 113 | 3.2 | 8.0 | 0.00 | 0.00 | 0.00 | 1015.4 | |
| 20260506091132 | 30 | 135 | 3.2 | 8.0 | 0.00 | 0.00 | 0.00 | 1015.3 | |
| 20260506090212 | 29 | 135 | 1.6 | 6.4 | 0.00 | 0.00 | 0.00 | 1015.3 | |
| 20260506085313 | 29 | 135 | 1.6 | 4.8 | 0.00 | 0.00 | 0.00 | 1015.3 | |
| 20260506084411 | 28 | 135 | 6.4 | 9.7 | 0.00 | 0.00 | 0.00 | 1015.4 | |
| 20260506083530 | 28 | 158 | 3.2 | 6.4 | 0.00 | 0.00 | 0.00 | 1015.2 | |
| 20260506082629 | 28 | 158 | 3.2 | 8.0 | 0.00 | 0.00 | 0.00 | 1015.2 | |
| 20260506081709 | 28 | 158 | 4.8 | 11.3 | 0.00 | 0.00 | 0.00 | 1015.1 | |
| 20260506080808 | 27 | 142 | 1.6 | 6.4 | 0.00 | 0.00 | 0.00 | 1015.2 | |
| 20260506073221 | 27 | 113 | 3.2 | 8.0 | 0.00 | 0.00 | 0.00 | 1015.3 | |
| 20260506072302 | 27 | 113 | 1.6 | 3.2 | 0.00 | 0.00 | 0.00 | 10 | 1015.3 |
| 20260506071401 | 26 | 135 | 1.6 | 3.2 | 0.00 | 0.00 | 0.00 | 12 | 1015.3 |
| 20260506070458 | 25 | 135 | 3.2 | 6.4 | 0.00 | 0.00 | 0.00 | 13 | 1015.2 |
| 20260506061052 | 23 | 0.0 | 1.6 | 0.00 | 0.00 | 0.00 | 18 | 1015.2 | |
| 20260506060121 | 23 | 135 | 1.6 | 3.2 | 0.00 | 0.00 | 0.00 | 20 | 1015.1 |